This is the latest recevied weather packets stored in our database for station/object W9QL-13. If no packets are shown the sender has not sent any weather packets the latest 10 day(s).
| Time | Temp. | Humidity | Pressure | Rain* | Wind** | Luminosity | Snow |
|---|---|---|---|---|---|---|---|
| 1777562938 | 11.11° C | 60% | 1015.7 hPa | 0 mm | - | - | - |
| 1777562638 | 11.11° C | 60% | 1015.8 hPa | 0 mm | - | - | - |
| 1777562338 | 11.11° C | 60% | 1015.8 hPa | 0 mm | - | - | - |
| 1777562008 | 11.11° C | 58% | 1015.8 hPa | 0 mm | - | - | - |
| 1777561708 | 11.67° C | 62% | 1015.8 hPa | 0 mm | - | - | - |
| 1777561408 | 11.67° C | 62% | 1015.9 hPa | 0 mm | - | - | - |
| 1777561078 | 11.67° C | 65% | 1015.9 hPa | 0 mm | - | - | - |
| 1777560778 | 11.67° C | 64% | 1015.8 hPa | 0 mm | - | - | - |
| 1777560478 | 11.67° C | 65% | 1015.8 hPa | 0 mm | - | - | - |
| 1777560178 | 11.67° C | 68% | 1015.9 hPa | 0 mm | - | - | - |
| 1777559848 | 11.11° C | 71% | 1016 hPa | 0 mm | - | - | - |
| 1777559518 | 10.56° C | 74% | 1016.1 hPa | 0 mm | - | - | - |
| 1777559218 | 10° C | 75% | 1016.1 hPa | 0 mm | - | - | - |
| 1777558888 | 9.44° C | 80% | 1016.1 hPa | 0 mm | - | - | - |
| 1777558588 | 8.89° C | 82% | 1015.9 hPa | 0 mm | - | - | - |
| 1777558289 | 8.33° C | 84% | 1016 hPa | 0 mm | - | - | - |
| 1777557988 | 8.33° C | 84% | 1015.9 hPa | 0 mm | - | - | - |
| 1777557658 | 8.33° C | 87% | 1015.9 hPa | 0 mm | - | - | - |
| 1777557358 | 7.78° C | 87% | 1016 hPa | 0 mm | - | - | - |
| 1777557058 | 7.22° C | 87% | 1016 hPa | 0 mm | - | - | - |
| 1777556758 | 7.22° C | 88% | 1016.1 hPa | 0 mm | - | - | - |
| 1777556428 | 6.67° C | 88% | 1016 hPa | 0 mm | - | - | - |
| 1777556098 | 6.67° C | 88% | 1016 hPa | 0 mm | - | - | - |
| 1777555798 | 6.11° C | 88% | 1016 hPa | 0 mm | - | - | - |
| 1777555498 | 6.11° C | 88% | 1016 hPa | 0 mm | - | - | - |
* Rain latest hour (hover to see other rain measurements)
** Current wind speed in m/s (hover to see current wind gust speed)